Location: Biltmore Gardens
(41.6070°N, 83.4666°W)
Time: 14:24:35
(UTC+00:00)

Cosmos 1470 Rocket - Pass Details

Date: 14 July 2020
Orbit: 603 x 634 km, 82.5° (Epoch: 05 August)

Event Time Altitude Azimuth Distance (km) Brightness Sun altitude
Exits shadow 06:08:17 59° 55° (NE) 738 4.0 -26.5°
Drops below altitude 10° 06:12:11 10° 14° (NNE) 2,027 7.2 -26.4°
Sets 06:14:27 0° 11° (NNE) 2,939 8.4 -26.3°
